RH
16 15 15 14 12 12 12 12 13 14 16 15 13 12 12 11 10 9 10 11 11 13 15 15 15 16 18 19 18 17 15 12 10 8 7 6 6 6 5 5 5 6 8 11 16 20 21 21 22 25 28 30 32 34 35 36 37 39 39 40 41 41 40 38 35 32 28 26 26 28 30 35 48 62 73 79 81 85 93 101 102 100 96 94 93 89
16 15 15 14 13 14 14 14 14 15 16 16 13 12 11 9 10 11 12 12 14 17 18 15 14 16 18 19 19 18 16 13 11 9 8 7 6 6 5 5 5 5 7 9 13 17 20 22 23 25 27 28 29 29 30 31 32 33 33 33 36 38 41 44 44 40 36 35 31 28 26 24 25 33 49 66 76 78 82 90 99 103 101 98 96 94
16 16 15 14 14 15 16 16 16 16 17 15 13 13 11 10 11 13 14 14 16 18 17 15 16 17 18 21 21 19 17 14 11 9 8 7 6 6 5 5 5 5 6 8 11 15 17 20 23 26 26 27 28 29 28 29 30 30 29 28 29 30 33 38 41 39 35 36 37 36 35 33 28 23 24 34 52 67 76 82 88 97 103 102 100 98
17 17 16 15 14 15 17 17 17 18 18 16 13 12 12 12 12 14 15 16 16 16 15 16 18 18 18 22 23 20 19 15 12 10 8 8 6 6 6 5 5 5 6 8 10 14 16 18 21 23 24 25 28 30 30 31 32 33 34 33 30 28 28 29 31 33 35 37 38 39 38 37 35 33 28 23 26 38 55 70 79 87 95 100 102 102
18 17 16 15 15 16 18 18 18 19 18 16 14 13 14 14 15 17 17 17 17 15 16 18 19 19 20 23 24 22 20 17 14 11 9 8 7 6 6 5 5 5 6 7 10 13 16 17 19 21 25 27 29 32 33 34 35 35 35 33 30 28 27 28 27 27 31 35 38 41 42 42 39 35 34 32 27 24 28 41 57 71 83 92 99 101
18 17 16 16 16 16 18 18 18 19 19 17 15 16 16 15 17 20 19 18 17 16 19 22 21 22 23 24 25 24 22 19 15 12 10 8 7 7 6 5 5 5 5 7 9 13 16 19 20 22 25 28 30 33 35 37 36 32 27 23 21 20 21 22 24 26 31 35 40 45 46 47 47 41 38 37 34 31 26 24 30 43 58 73 85 94
17 16 16 17 16 17 18 18 19 20 20 18 17 19 18 16 18 21 21 20 18 19 22 24 24 26 26 26 27 26 23 21 16 13 11 9 8 7 6 6 5 5 5 6 9 12 15 18 20 22 24 26 29 32 35 35 29 21 17 16 16 16 17 18 20 26 35 40 48 55 54 51 50 48 45 40 34 32 32 30 27 27 33 44 57 71
15 16 17 17 16 17 18 18 19 21 21 18 18 19 17 17 19 21 23 22 20 21 24 27 29 30 29 28 28 28 25 22 17 14 12 10 9 8 7 6 5 5 5 6 8 11 15 18 19 22 25 28 32 33 31 25 19 16 16 17 19 18 17 19 26 37 45 50 58 63 61 57 53 49 46 41 38 37 38 39 38 36 33 31 35 42
15 16 17 16 16 17 17 17 19 22 21 19 18 18 18 18 19 21 24 24 24 24 26 30 32 31 31 30 30 30 27 23 19 16 13 11 9 8 7 7 6 5 5 6 7 9 12 17 20 23 26 29 31 29 23 17 15 16 19 22 23 23 25 29 42 56 61 61 65 67 65 62 58 52 46 41 43 49 53 52 48 45 41 36 32 30
15 17 16 15 16 16 16 17 21 22 21 19 18 18 19 19 19 22 24 26 29 29 28 33 35 33 32 31 32 33 30 25 22 18 15 13 10 9 8 7 6 6 5 5 6 8 10 14 18 22 27 29 25 20 15 14 15 17 22 28 29 31 40 48 59 69 70 67 65 64 64 62 60 56 50 45 47 54 58 56 51 46 43 40 36 32
15 16 16 16 16 16 15 18 22 23 21 20 19 19 19 19 19 22 25 27 33 34 32 35 37 37 35 33 34 35 32 29 25 21 18 15 11 10 8 8 7 6 6 5 5 6 8 11 15 19 24 25 21 16 14 13 15 18 23 30 34 44 60 66 69 71 68 62 57 53 52 51 53 54 53 53 55 58 58 55 52 48 44 42 39 36
12 13 16 16 16 16 16 17 20 23 23 21 21 20 19 19 21 24 26 29 35 38 37 37 39 40 38 36 36 37 35 32 29 25 21 17 13 11 9 8 8 7 6 6 5 6 6 8 12 16 21 23 19 16 14 13 15 19 24 28 32 51 72 75 71 70 64 58 53 49 46 45 45 47 50 54 56 58 59 57 56 53 49 46 42 40
10 12 14 14 15 16 15 16 19 23 24 23 23 21 20 21 23 25 27 29 34 40 41 39 40 41 41 40 39 39 38 35 32 28 24 20 16 13 11 9 8 7 6 6 5 5 6 7 10 13 18 22 19 16 14 13 15 18 22 22 26 49 75 77 71 69 63 59 55 51 49 47 47 48 49 52 54 55 56 54 53 52 50 48 45 42
9 11 12 12 14 15 14 17 20 23 25 25 24 23 23 25 26 27 29 28 31 38 43 41 41 44 45 43 42 40 39 37 34 31 27 22 18 14 12 11 9 8 7 6 6 5 5 6 8 12 16 20 19 17 15 14 16 20 22 20 25 47 68 71 67 64 58 54 53 51 51 51 52 56 59 61 63 64 63 60 57 53 48 45 43 41
10 12 13 13 14 16 18 19 20 24 27 27 26 26 28 30 31 33 34 32 30 35 42 43 44 47 48 46 45 42 41 39 37 34 30 25 21 17 14 12 10 9 8 7 6 6 5 5 7 10 14 20 20 17 16 15 15 20 23 23 28 44 59 62 60 57 51 48 48 50 52 53 56 60 64 66 66 66 65 63 60 57 53 48 44 41
12 13 14 15 16 19 21 22 24 26 28 29 29 29 31 33 35 35 36 35 33 34 42 46 47 49 51 50 48 44 42 42 40 37 34 30 24 20 16 14 12 10 9 8 7 6 5 5 6 8 12 18 21 19 17 16 15 19 25 28 31 40 50 54 52 49 47 45 46 50 50 52 55 58 59 58 58 57 57 56 54 52 49 46 43 41
12 12 14 16 18 18 21 25 29 31 31 31 31 30 33 38 39 37 35 36 36 36 42 50 51 49 52 53 51 48 46 44 44 40 37 33 27 23 19 16 14 12 10 8 7 7 6 5 5 6 9 16 21 21 18 17 16 17 23 30 32 37 42 46 46 44 45 45 48 50 50 51 53 53 54 54 56 56 56 56 55 52 49 46 43 41
12 12 14 16 17 18 20 25 32 36 34 33 33 35 37 40 41 41 39 38 40 38 40 51 55 49 53 58 55 53 50 47 46 44 40 37 31 27 23 19 16 14 11 10 8 8 7 6 5 5 7 13 19 22 20 18 17 17 21 27 32 36 39 41 42 42 44 48 51 52 52 52 52 51 52 55 56 57 59 61 63 63 62 62 59 51
13 12 13 13 15 17 19 24 31 35 35 34 37 39 41 42 44 47 47 44 45 44 40 48 59 54 54 61 60 57 54 50 48 47 44 41 36 32 27 22 19 16 13 12 9 9 8 6 6 6 6 10 16 21 22 19 17 17 21 27 32 36 39 39 40 41 43 47 50 52 53 53 52 52 52 55 58 61 64 68 71 72 74 79 80 68
14 13 14 14 15 16 18 23 29 33 34 36 38 39 41 44 47 50 53 52 52 54 48 48 61 62 57 62 64 61 59 55 51 50 47 44 41 36 31 26 22 19 16 14 11 9 9 7 6 5 6 8 11 17 22 21 19 18 20 26 32 37 40 40 39 39 40 41 44 48 51 52 54 55 55 57 61 63 67 72 76 76 77 85 91 82
16 16 15 15 16 16 17 21 28 35 39 41 41 42 43 47 50 51 53 55 57 62 60 55 63 67 62 63 66 65 64 60 56 53 51 48 45 40 36 31 26 22 18 16 14 11 10 8 7 6 5 7 8 13 20 23 22 19 19 23 31 37 41 42 42 41 39 39 39 39 41 44 48 53 58 63 66 67 69 74 81 82 79 82 92 89
17 17 16 16 16 18 19 21 27 35 41 45 47 47 48 51 55 53 52 57 62 68 69 65 66 68 64 66 70 70 69 66 61 58 55 52 49 44 40 36 30 26 22 18 17 14 12 10 8 7 6 6 7 10 16 23 24 21 19 20 27 35 40 42 43 43 43 44 44 42 41 41 43 47 52 58 65 71 74 76 81 86 85 83 86 88
18 18 17 16 16 18 20 21 26 31 36 44 52 55 56 58 61 57 53 58 65 71 74 69 68 72 69 70 77 76 74 73 68 64 60 56 53 49 45 41 35 30 26 22 19 17 14 12 9 8 7 5 6 8 11 19 24 25 22 19 22 28 35 39 41 41 42 44 47 49 49 50 50 52 54 55 58 62 69 76 80 85 88 87 84 83
20 19 18 17 16 18 20 21 24 29 33 40 51 58 60 61 63 60 56 60 66 73 78 70 67 78 79 77 83 83 80 80 75 69 66 62 58 54 49 45 41 36 30 25 22 20 17 15 12 9 8 6 6 7 9 14 22 27 26 21 20 22 26 33 38 39 39 39 41 44 48 53 57 59 62 64 62 57 58 65 74 81 88 89 86 83
25 24 22 20 18 17 19 20 21 27 34 40 48 56 59 62 67 64 59 63 67 72 81 74 65 79 91 86 86 87 85 85 82 76 72 68 63 59 55 51 46 41 36 30 26 23 20 18 15 12 10 8 6 6 7 10 17 25 30 27 22 20 20 24 30 36 39 38 37 37 40 46 55 62 65 68 71 68 60 57 60 67 78 87 88 85
29 30 29 27 25 23 24 27 28 33 42 48 52 58 62 68 74 72 65 68 71 73 85 86 69 71 89 92 88 89 89 88 87 82 78 75 70 65 60 56 52 47 42 36 31 27 23 21 19 15 12 9 8 6 6 8 11 18 28 32 28 22 20 19 22 27 33 37 38 36 35 36 44 56 66 69 71 74 70 63 58 56 60 72 83 84
32 34 34 33 31 29 31 34 38 43 51 59 63 63 66 70 76 78 76 76 78 74 79 91 83 71 81 91 86 82 84 86 87 85 83 82 79 73 66 62 58 53 48 42 37 32 27 24 22 19 15 11 9 8 6 6 8 11 20 31 34 30 23 20 20 20 24 30 34 35 35 34 35 42 57 68 70 70 72 71 68 61 52 53 64 76
34 34 35 36 35 33 34 36 40 51 59 65 69 68 68 70 74 84 88 82 80 74 68 80 89 81 78 84 81 75 76 81 84 87 88 88 85 80 74 68 64 59 54 49 43 38 33 29 25 22 19 15 11 9 8 6 6 7 12 21 32 37 32 24 21 21 20 22 25 29 31 32 32 33 43 58 67 67 69 73 74 70 61 49 44 53
34 35 35 38 38 36 37 38 41 52 63 68 73 73 71 71 73 84 91 79 72 73 67 68 80 81 75 74 77 77 76 78 83 88 90 89 87 87 83 75 70 65 60 55 50 44 39 34 30 26 23 19 15 11 9 7 6 6 7 11 21 33 39 34 26 23 23 22 21 22 24 26 28 29 33 44 58 65 67 71 74 74 71 62 45 36
34 36 36 38 40 39 40 41 41 45 55 66 74 73 70 70 70 76 81 71 63 68 68 64 68 74 72 71 77 81 81 81 83 85 87 86 86 90 90 84 78 72 67 62 56 51 46 41 36 31 27 24 20 15 12 9 7 6 6 8 11 21 35 42 37 28 25 26 25 22 20 20 22 25 28 33 45 59 63 65 69 70 70 70 61 48
37 38 37 38 42 42 41 42 42 41 47 58 64 63 62 64 66 71 74 67 61 64 66 64 62 64 67 70 78 85 87 85 83 81 83 85 86 88 91 91 88 81 74 69 63 58 53 48 43 37 32 28 25 20 15 12 10 8 6 6 8 12 21 35 43 40 31 26 27 28 25 21 19 21 25 28 34 47 58 61 64 64 62 64 65 63
40 41 40 39 41 44 44 44 45 44 45 50 53 55 59 59 60 70 75 68 64 64 63 63 62 61 64 70 79 89 90 87 85 82 82 86 88 87 87 92 94 89 82 76 70 65 60 55 49 44 38 34 29 25 21 16 12 10 8 6 6 8 12 21 35 45 43 33 27 28 31 29 25 21 22 25 27 35 47 56 61 63 60 58 58 61
44 44 44 42 42 46 49 48 48 47 44 46 49 52 57 56 56 68 75 67 64 65 62 60 61 60 63 70 79 89 91 88 88 87 84 85 88 88 88 91 94 93 89 84 78 71 67 62 57 52 46 40 35 30 26 22 16 12 10 8 6 6 8 13 21 34 46 47 37 29 28 32 34 31 25 24 24 27 37 46 53 59 62 61 58 57
47 47 48 48 47 48 52 51 50 49 45 46 50 50 52 54 54 63 72 66 61 62 60 57 57 57 61 69 76 85 91 91 90 91 89 86 87 90 92 93 93 92 92 91 87 80 73 68 64 60 55 48 42 36 31 28 23 17 13 10 8 6 5 8 13 19 32 46 51 43 32 28 34 38 36 32 27 26 32 39 43 49 56 60 60 59
50 51 51 53 53 52 54 53 50 51 50 50 51 50 51 52 51 57 66 65 61 60 58 57 57 57 60 67 75 84 91 93 93 94 93 90 89 91 91 91 93 94 93 93 92 88 81 75 70 67 63 57 50 44 38 33 28 23 18 13 11 9 6 5 8 11 16 29 46 55 50 38 31 33 39 42 40 36 36 40 43 45 48 54 58 60
54 54 54 56 56 55 56 56 52 52 53 51 50 50 51 52 51 52 58 60 59 58 58 58 58 57 59 66 75 84 90 93 93 93 93 91 89 89 87 87 92 95 93 91 92 92 89 83 77 72 69 64 58 52 46 39 33 28 23 18 13 11 9 6 5 7 10 14 27 45 58 58 46 36 34 38 45 49 48 48 50 51 50 50 54 60
58 58 58 58 59 59 58 56 52 50 50 49 49 51 53 54 53 51 52 54 54 54 56 58 58 57 60 68 77 84 87 90 90 88 89 89 87 86 86 86 88 90 91 90 91 93 93 91 86 80 74 70 66 61 55 48 40 33 28 24 19 14 11 9 6 5 6 8 13 25 43 60 63 55 44 36 38 46 52 55 58 59 58 55 55 58
61 61 62 63 64 63 60 55 50 48 48 49 51 53 55 56 55 53 51 50 50 51 53 57 57 58 63 72 81 85 85 87 88 87 88 88 87 87 88 87 86 88 90 93 94 93 94 95 93 89 81 76 72 68 63 57 49 41 34 29 24 19 14 11 9 7 5 5 7 11 23 43 60 68 65 54 43 39 42 50 58 62 63 62 61 60
63 64 66 67 67 64 60 56 54 53 51 51 55 58 58 57 56 54 51 48 47 47 50 54 56 59 67 78 86 89 88 87 89 89 90 91 90 89 90 91 92 92 92 95 96 96 96 96 97 95 89 82 77 72 69 65 58 50 41 34 29 24 19 14 11 9 7 5 5 5 10 23 43 61 71 71 63 52 42 39 45 54 61 63 63 63
64 66 68 69 68 64 58 54 54 56 55 54 56 58 57 57 58 57 52 46 45 45 47 52 56 61 73 83 90 95 95 93 94 95 95 95 95 94 94 96 98 98 97 97 98 97 97 98 99 100 97 91 84 78 73 70 66 59 50 42 35 30 24 19 14 11 9 7 5 5 4 9 23 44 62 72 74 70 63 51 42 42 49 55 60 62
64 68 69 70 67 62 58 55 52 54 56 56 56 58 57 56 59 61 56 47 43 43 46 52 57 63 77 88 93 98 99 98 98 100 99 99 99 98 99 100 100 101 100 100 100 100 98 98 98 101 101 97 91 85 79 75 72 68 60 51 42 36 31 24 18 14 12 9 7 6 5 4 8 22 43 61 70 73 75 74 66 55 47 45 48 52
66 67 70 70 65 59 59 57 53 52 56 56 56 56 57 57 60 62 56 46 41 41 45 51 58 65 78 92 97 100 101 99 100 101 100 100 100 100 100 101 100 101 101 101 101 101 100 98 97 98 100 100 97 93 86 81 78 75 69 61 51 43 36 30 23 17 14 12 9 7 6 5 4 7 20 41 61 70 72 76 80 79 72 63 54 49
71 71 71 70 65 59 60 61 57 56 57 57 56 56 57 60 63 62 54 44 39 41 46 51 57 66 79 92 99 101 101 101 101 102 101 100 100 100 100 100 100 101 101 101 101 101 101 100 99 98 100 101 102 100 94 87 83 80 76 70 61 51 42 35 28 22 17 14 12 9 7 5 5 4 6 18 40 62 73 75 75 79 85 86 83 76
76 76 74 69 65 63 65 66 62 60 59 57 56 57 59 63 64 59 50 42 40 43 47 51 57 65 78 90 98 101 102 101 101 101 101 100 100 100 100 100 100 100 100 100 100 100 101 101 100 100 101 102 103 103 100 95 90 86 81 78 71 61 50 42 35 28 22 17 14 12 10 7 5 5 5 6 17 40 66 80 82 80 81 85 87 90
77 77 74 68 66 68 71 70 63 58 61 61 57 58 64 67 63 53 45 42 43 45 49 52 56 64 75 87 96 101 102 101 101 101 101 100 100 100 100 100 100 100 100 100 100 100 100 101 101 100 100 101 101 102 102 100 96 92 88 84 80 71 60 49 41 34 28 22 17 14 11 10 7 5 5 4 7 18 42 69 87 91 88 85 83 82
73 71 70 65 64 65 66 68 61 53 59 65 61 60 64 64 56 48 43 44 46 47 50 53 55 61 72 84 94 100 102 101 100 100 101 100 100 100 100 100 100 100 100 100 100 100 100 100 100 100 101 101 101 101 102 102 100 98 95 91 87 80 70 58 48 40 35 28 21 17 13 11 10 8 6 5 4 6 16 39 67 86 93 92 90 87
59 61 68 66 63 60 57 59 55 49 57 68 65 59 57 51 45 42 42 44 47 49 51 53 54 60 71 82 92 98 100 101 101 100 100 100 100 100 100 100 100 100 100 100 100 100 100 100 100 101 101 101 101 100 101 101 101 101 101 98 94 87 79 69 56 45 40 34 26 20 16 14 11 10 8 6 5 5 5 12 32 57 78 88 90 90
46 55 68 63 55 52 51 53 51 48 54 62 57 48 44 40 38 39 41 43 46 49 51 52 55 62 72 83 92 97 99 101 100 100 100 100 100 100 100 100 101 100 100 100 100 100 100 100 100 100 101 102 101 100 101 101 100 101 103 103 101 95 87 78 65 52 44 39 32 25 19 16 13 11 10 7 6 5 5 5 11 26 49 69 79 83
47 60 70 56 43 45 50 51 47 40 40 43 41 36 36 37 38 39 41 44 47 51 55 59 63 69 77 86 94 98 100 101 100 100 100 100 100 101 100 100 100 100 100 100 100 100 100 100 100 100 100 101 101 100 101 101 100 101 102 103 104 102 94 86 75 62 50 42 37 31 23 18 15 13 11 10 8 6 5 5 6 12 26 48 65 72
57 65 65 52 41 41 44 43 37 31 30 32 33 34 35 37 38 39 43 48 54 60 66 70 75 80 86 92 98 101 102 101 100 100 100 100 100 101 100 100 100 100 100 100 100 100 100 100 100 100 100 101 101 100 101 100 100 100 100 102 104 104 101 93 83 71 58 47 40 34 27 21 18 14 12 11 9 8 6 5 4 6 14 32 53 67
58 57 52 46 39 32 31 32 28 25 26 28 28 29 30 32 35 39 45 53 61 69 75 80 84 89 92 97 100 103 103 101 100 100 100 100 101 101 100 101 100 100 100 100 100 100 100 100 100 100 100 100 101 101 100 100 100 100 100 101 102 103 103 99 91 80 67 54 45 37 30 24 19 16 14 12 10 8 7 6 5 4 6 16 37 59
Wind_Speed
31 32 32 32 34 36 37 37 37 39 42 44 46 48 48 47 47 49 51 52 55 56 58 60 63 65 66 68 70 71 72 74 76 78 80 82 82 83 83 81 79 76 71 64 57 52 48 44 40 38 38 36 35 35 35 35 36 36 36 37 38 38 39 40 41 43 47 51 56 60 65 70 74 78 79 80 81 81 79 78 78 80 82 82 82 83
33 33 34 35 36 37 37 37 37 38 41 43 45 46 46 46 46 49 51 53 55 55 57 62 65 65 66 68 69 70 72 73 75 77 79 80 81 82 82 81 80 76 71 65 58 52 47 43 40 37 37 37 37 37 37 37 37 38 39 39 39 40 40 42 43 43 43 44 46 48 52 57 63 71 77 80 81 82 82 81 79 79 80 82 82 83
35 35 36 37 37 37 37 36 36 37 39 42 44 45 45 46 47 49 51 53 54 54 57 63 65 65 67 68 68 70 71 72 74 75 76 78 81 83 84 83 82 78 72 66 59 53 47 42 39 37 37 37 38 39 39 39 40 41 41 42 42 42 42 43 45 46 45 44 45 45 46 48 50 55 64 73 80 82 83 82 82 81 80 80 81 83
37 37 37 37 38 38 37 36 35 36 38 41 44 44 44 46 49 50 51 53 55 56 59 62 64 66 68 67 68 69 71 71 71 73 75 78 81 83 84 85 83 79 74 67 60 54 48 43 40 38 38 37 38 40 41 41 43 43 44 45 44 44 45 45 45 46 46 46 46 46 46 47 47 47 50 56 66 76 82 84 84 83 82 81 81 81
38 38 38 38 38 39 38 37 35 36 38 42 44 45 44 46 49 51 52 54 56 59 60 62 65 67 68 67 68 69 70 71 71 72 75 77 80 82 83 84 82 79 75 69 62 55 48 44 42 40 41 41 42 43 45 46 46 46 46 47 47 46 46 47 46 45 45 45 45 46 46 46 46 46 46 47 52 60 71 80 84 85 84 83 83 82
38 39 38 38 39 40 39 38 36 36 38 41 44 44 44 46 48 50 53 56 58 60 61 63 66 67 67 67 68 70 70 71 71 72 73 76 78 80 82 82 82 80 77 71 65 57 50 45 43 42 41 42 44 45 48 50 51 50 49 49 49 48 47 47 46 45 44 43 42 43 43 44 44 44 44 46 48 49 55 64 74 81 84 85 85 84
39 39 39 39 39 40 40 39 37 37 39 41 43 43 43 45 47 49 53 57 59 59 61 64 66 65 65 67 67 68 70 69 70 71 73 75 77 78 80 82 82 81 77 73 67 60 53 47 44 43 42 43 45 46 49 52 53 54 53 51 50 47 45 44 43 42 41 40 39 38 38 40 41 41 42 44 47 47 48 51 57 66 73 79 84 85
38 39 40 39 39 40 40 39 38 37 39 41 42 42 43 45 47 49 52 56 59 59 61 64 64 63 63 65 66 67 68 68 69 71 72 74 75 77 79 81 82 81 79 75 69 63 56 50 46 44 44 45 47 49 50 52 55 55 54 52 48 45 42 40 39 37 37 36 36 35 35 36 37 39 41 42 43 44 45 47 49 53 58 64 71 78
37 39 39 39 39 40 40 40 39 38 39 41 42 43 44 46 47 49 51 55 57 59 61 62 63 62 62 64 66 67 67 67 68 69 70 72 73 75 78 80 81 81 80 76 72 66 60 53 48 45 45 46 47 49 51 53 54 54 51 49 45 42 39 36 34 33 33 32 32 33 33 34 36 38 39 40 38 38 39 43 46 49 51 53 57 63
36 37 39 39 40 40 41 41 39 38 40 41 42 44 45 46 47 49 51 53 56 58 61 61 61 62 62 65 66 66 66 66 66 68 69 70 72 73 76 78 80 80 80 78 73 69 64 57 50 47 46 46 48 50 53 55 54 51 47 44 41 38 35 33 31 30 30 30 30 31 32 32 34 35 36 36 35 35 38 41 44 47 49 50 52 54
36 37 38 39 41 42 43 42 40 39 41 42 43 45 45 46 48 50 51 53 54 56 59 60 60 61 64 66 66 64 64 64 65 66 67 69 70 72 74 76 78 79 79 78 75 72 67 61 54 49 46 47 49 52 55 56 53 50 45 41 38 34 32 31 29 28 29 29 30 30 30 31 31 32 32 32 33 34 37 40 43 45 47 49 51 52
37 37 38 39 41 43 44 44 42 41 42 43 45 46 46 47 49 51 52 53 53 53 57 59 59 61 63 65 65 64 63 64 65 66 67 68 69 70 72 74 76 79 79 78 77 74 70 65 59 52 48 48 51 53 55 55 52 48 45 40 35 31 30 28 27 26 27 27 28 29 29 30 30 31 31 31 32 34 36 38 41 43 45 48 50 52
37 37 39 40 41 43 45 45 43 41 42 44 44 46 48 49 51 52 53 52 52 51 54 58 60 61 62 62 64 64 63 64 65 66 67 68 69 70 71 73 75 78 79 79 78 76 72 68 63 57 52 49 51 54 55 55 51 48 44 39 34 29 28 27 26 25 25 25 26 27 28 29 30 30 30 31 32 33 35 37 40 42 44 46 48 50
39 38 40 41 42 44 46 46 45 43 43 44 45 47 50 51 53 54 53 52 53 51 53 57 59 61 61 61 63 64 65 65 65 66 67 67 68 69 71 73 74 76 78 79 78 77 74 71 67 62 56 51 50 53 55 54 51 47 43 38 33 29 27 26 25 25 25 25 26 26 27 28 28 29 29 29 30 32 34 36 38 41 44 45 47 49
40 39 40 42 43 45 45 46 46 44 44 44 46 47 49 51 52 53 53 54 56 54 53 57 59 60 61 61 63 65 65 65 64 65 66 66 67 68 70 72 73 75 76 78 78 77 76 73 69 65 60 54 51 52 54 54 52 48 43 38 33 29 28 27 26 26 25 25 26 26 27 27 27 27 27 28 29 30 32 34 37 39 42 44 46 47
40 40 40 41 43 43 44 45 45 45 44 44 45 46 48 49 50 51 52 54 57 57 55 57 59 60 61 61 62 65 65 64 64 65 65 66 66 67 68 70 71 73 75 76 78 77 76 74 71 68 64 58 53 51 53 53 51 48 43 39 34 30 29 28 27 27 26 26 26 27 27 27 26 26 26 27 28 29 31 33 35 37 39 42 43 44
40 41 41 40 41 42 43 43 43 44 43 43 44 46 48 48 49 51 53 55 57 58 56 56 58 60 60 60 62 64 65 64 65 65 65 66 66 66 67 69 70 72 73 75 76 77 76 75 72 70 66 61 55 52 51 52 50 47 43 39 35 32 30 29 28 27 27 27 27 27 27 27 26 26 26 27 28 29 30 32 33 35 36 37 39 40
42 41 41 40 41 42 43 43 41 41 42 43 44 46 48 48 49 51 54 56 57 58 57 55 56 60 60 61 62 63 65 66 65 66 66 65 65 66 67 68 69 71 72 74 76 77 78 76 74 71 67 63 58 53 50 50 50 47 44 40 37 34 32 31 29 28 28 27 27 27 26 26 26 26 26 27 27 29 30 32 32 32 32 31 31 32
43 43 42 42 42 42 42 42 41 40 42 44 44 45 47 49 50 50 52 56 57 58 59 56 55 59 61 61 62 62 64 66 65 66 65 64 64 65 66 67 68 69 71 73 75 77 77 77 74 72 68 64 60 55 51 49 49 47 44 41 38 36 34 32 30 29 28 28 27 27 27 26 26 27 27 27 28 30 31 32 32 31 29 27 24 23
44 44 43 43 43 43 42 42 42 42 42 44 44 45 47 49 50 50 51 54 57 58 59 58 55 57 61 61 62 62 63 64 65 65 65 64 64 65 65 66 67 68 69 71 73 74 76 77 75 72 69 65 62 58 53 49 47 46 43 40 38 36 34 33 31 30 29 29 28 28 28 28 28 28 28 29 29 30 31 32 33 32 29 25 22 18
43 44 44 44 43 44 44 43 42 42 41 43 45 46 48 49 50 51 51 53 55 57 59 59 56 57 60 61 62 62 62 64 65 65 65 65 65 65 65 66 67 68 69 70 72 73 75 76 75 73 70 66 63 60 55 50 47 45 43 40 37 35 34 33 32 32 31 31 30 30 29 30 30 30 30 30 30 31 31 32 33 33 31 27 22 17
43 44 45 45 44 43 44 44 42 41 40 41 43 46 48 49 50 51 52 53 54 55 57 59 58 58 60 61 61 62 62 63 64 64 64 66 66 65 65 65 66 67 68 69 70 72 74 75 75 74 71 68 64 61 58 53 48 45 43 40 37 34 33 32 32 32 32 32 32 32 31 31 32 32 32 32 32 32 31 31 32 32 32 29 24 19
44 44 45 47 46 44 44 45 44 43 42 41 42 44 47 49 50 51 53 53 53 53 56 58 58 59 61 61 61 62 62 63 64 64 65 66 66 66 65 65 65 66 68 68 69 71 73 74 75 74 72 69 66 62 59 55 50 45 43 41 38 35 33 31 31 31 32 32 33 33 33 33 33 33 33 33 33 32 32 31 31 31 31 30 27 23
44 45 46 48 48 46 45 46 46 45 45 44 42 43 46 49 50 51 53 53 53 53 55 58 58 58 61 62 61 62 63 63 63 64 65 66 66 65 65 64 65 65 66 67 68 69 71 72 73 73 72 70 67 63 59 56 52 47 43 41 39 36 34 32 31 30 31 32 33 34 35 34 34 34 34 34 34 33 32 31 31 30 30 30 28 26
44 45 46 49 50 48 47 47 48 47 47 47 45 44 46 49 50 51 53 54 54 54 55 59 60 57 58 61 61 61 62 62 63 64 65 66 66 65 65 64 64 65 65 66 66 67 68 70 71 72 72 71 69 66 61 57 53 49 45 41 39 37 36 33 31 30 30 31 32 33 35 35 35 35 35 35 35 34 33 32 31 30 29 29 28 27
42 43 44 47 50 50 49 49 49 48 47 47 46 45 45 48 49 52 54 55 56 55 54 57 60 58 57 59 60 60 61 61 62 63 64 65 65 65 64 64 64 64 64 65 65 66 67 68 69 71 71 71 69 67 64 59 55 51 47 42 39 37 36 35 33 31 30 30 30 32 33 35 35 35 35 35 35 34 34 33 32 31 30 29 28 26
42 42 42 43 47 48 48 48 48 47 47 46 46 45 44 46 49 51 55 56 56 56 55 56 60 60 58 58 60 61 61 61 62 63 63 63 64 64 64 64 63 63 64 64 65 65 66 67 68 70 70 71 70 68 65 62 58 54 49 44 40 37 36 35 34 33 31 30 30 30 31 33 34 34 34 34 34 33 33 33 32 31 30 29 28 27
43 43 42 42 44 47 46 47 47 47 46 46 45 45 44 46 49 51 53 55 56 56 56 56 58 60 59 59 60 61 62 62 62 62 62 62 62 63 63 63 63 63 63 63 64 64 65 66 66 68 69 70 70 69 67 64 61 57 52 47 43 39 36 35 34 33 32 31 30 29 30 31 32 33 33 33 33 32 32 32 32 31 30 29 29 27
44 44 44 42 43 46 46 46 47 46 45 45 44 45 46 47 49 50 52 55 56 56 57 56 56 58 59 59 60 62 63 63 63 62 62 63 63 63 63 63 63 63 63 63 63 63 64 65 65 66 67 68 69 68 67 65 62 60 56 51 46 41 38 35 34 34 33 32 31 30 29 29 30 31 31 32 32 31 31 31 32 31 30 29 28 28
45 45 46 44 43 45 45 44 44 44 44 44 44 46 47 48 49 49 51 54 55 55 55 56 56 57 59 60 61 62 63 63 64 63 63 63 64 63 63 63 63 63 63 63 63 63 63 64 64 65 65 66 67 67 67 66 64 61 59 55 50 45 40 37 35 34 33 32 32 30 29 28 28 29 29 30 30 30 29 29 30 30 30 29 28 27
46 46 47 46 45 45 45 45 45 45 45 44 44 46 47 48 49 49 50 53 54 54 54 56 57 57 59 61 62 62 63 63 64 65 64 64 64 64 64 64 63 63 62 63 63 63 63 63 63 64 64 64 65 66 66 66 65 63 60 58 54 48 43 39 36 34 33 32 32 31 30 29 28 27 28 28 29 28 28 27 27 28 29 29 28 27
46 46 47 48 47 46 47 47 46 46 45 44 44 46 47 48 48 48 49 51 53 54 55 56 58 59 59 61 62 63 63 64 65 66 65 65 65 65 65 64 63 63 62 63 63 62 62 62 62 63 63 63 63 64 65 65 65 63 62 60 56 52 47 42 38 35 33 32 31 31 30 29 28 27 27 27 27 27 27 26 26 26 27 27 27 27
46 46 47 48 48 47 48 48 46 45 45 45 45 46 47 48 48 46 47 50 52 53 55 56 58 59 60 61 63 63 64 64 65 65 66 65 65 65 65 64 64 63 62 62 62 62 62 61 61 61 61 62 62 62 63 63 64 63 62 61 58 55 50 46 41 38 35 33 31 30 29 28 28 28 27 27 27 26 26 26 25 25 25 26 26 26
45 46 46 47 48 48 48 48 47 46 47 47 46 46 46 47 47 46 47 50 51 53 55 56 58 59 60 61 63 64 64 64 64 65 66 66 65 65 65 64 64 64 63 62 62 62 62 61 60 60 60 61 61 61 61 62 62 63 62 61 60 57 53 49 45 41 38 34 32 31 30 29 27 27 27 27 26 26 26 25 25 25 24 24 25 25
44 45 45 46 48 49 49 49 49 48 47 47 45 45 46 47 48 47 47 50 52 54 55 57 58 60 61 61 63 64 64 64 65 65 65 66 66 66 65 65 64 64 64 63 62 62 62 61 60 60 60 60 60 60 60 60 61 61 62 61 61 59 56 52 49 45 42 38 34 32 32 30 29 27 27 26 26 26 26 26 25 25 25 24 24 24
43 44 45 46 48 49 50 50 49 46 45 45 45 46 47 48 49 49 48 50 52 54 55 57 59 60 61 62 63 64 64 64 65 66 66 66 66 66 66 65 64 64 64 63 63 62 61 61 60 60 59 59 59 58 59 59 59 60 60 60 60 60 58 55 52 48 45 41 37 34 32 32 31 29 27 27 26 26 26 26 26 26 25 25 24 24
42 43 45 47 48 50 50 50 49 47 46 46 47 48 49 50 51 51 50 51 52 54 56 58 59 61 62 62 63 64 64 65 65 66 66 67 67 66 66 66 65 64 63 63 63 62 61 61 60 60 59 59 58 58 57 58 58 58 58 59 59 59 58 57 54 51 48 45 41 37 34 32 32 31 30 28 27 27 26 26 25 26 26 25 25 24
41 43 45 47 48 50 51 50 50 49 49 49 49 50 50 52 53 54 53 52 53 54 56 58 60 61 62 63 64 65 65 65 66 67 67 68 68 67 67 66 66 65 64 63 62 62 61 61 60 59 59 58 58 58 57 56 56 56 57 57 58 58 58 57 56 54 51 48 44 41 37 34 32 32 32 30 29 28 28 27 25 25 25 25 25 24
40 42 43 45 47 49 50 49 49 49 50 49 50 51 52 53 55 56 56 55 54 56 58 59 61 62 63 64 64 65 66 67 67 67 68 69 69 69 68 67 67 66 65 64 62 62 61 61 60 59 58 58 57 57 57 56 55 55 55 55 56 56 57 57 56 55 53 51 48 45 41 36 33 32 32 31 30 29 29 29 28 26 25 25 25 25
40 42 43 45 46 47 48 48 47 48 49 50 51 53 54 55 56 59 60 58 57 58 59 60 61 62 63 64 65 66 67 68 69 69 69 70 70 70 70 68 67 67 66 65 63 61 61 60 60 59 58 58 57 57 56 56 55 54 54 54 54 55 55 56 56 55 54 53 51 49 45 41 36 33 31 31 31 29 29 30 30 30 28 27 26 25
42 42 43 44 45 46 47 48 48 47 49 52 54 55 57 57 58 61 62 61 60 59 59 60 61 62 63 64 65 66 68 69 69 70 71 71 71 72 71 70 68 68 67 66 64 62 60 59 59 59 58 57 57 56 56 55 55 54 53 53 53 54 54 55 55 55 54 54 52 51 48 45 40 35 32 31 31 30 28 28 30 31 31 30 29 27
43 44 44 45 45 45 46 49 50 49 51 54 56 57 58 59 61 62 62 62 61 59 59 60 61 62 63 64 66 67 68 69 70 71 72 72 72 72 72 71 70 69 68 66 65 63 61 59 58 58 57 57 56 55 55 55 54 53 53 52 52 52 53 53 54 54 54 54 53 52 50 48 44 39 35 32 31 30 29 28 27 28 30 31 32 31
43 44 45 44 45 46 47 50 53 53 54 56 57 58 59 61 62 62 62 62 61 60 60 61 62 63 64 65 67 68 69 70 71 71 72 73 73 72 72 72 71 70 69 67 65 63 61 59 58 57 57 57 56 55 55 55 54 53 52 51 50 50 51 51 52 53 53 53 53 52 52 50 47 42 38 34 32 30 29 28 27 27 27 29 30 31
41 43 44 44 44 46 48 50 53 54 55 56 57 58 60 61 62 63 62 61 61 61 61 62 63 64 64 66 67 69 70 71 71 72 73 73 73 73 72 72 71 71 70 68 66 64 62 60 58 57 56 56 56 55 54 54 53 53 52 51 50 49 49 49 50 51 52 52 52 52 52 51 50 46 41 36 32 31 30 29 27 26 26 27 27 28
41 42 43 44 45 45 47 49 51 53 55 57 58 58 59 61 62 63 62 61 61 62 62 62 64 65 65 66 68 69 70 71 72 73 74 74 74 74 73 72 72 71 70 69 66 64 63 61 59 57 56 55 55 55 53 53 53 52 51 50 50 48 48 48 48 49 50 50 51 51 51 52 51 49 45 40 34 31 30 29 28 27 26 26 27 27
42 41 42 44 45 45 46 48 51 52 53 56 58 59 60 60 61 62 61 61 61 62 62 63 64 64 65 66 67 69 70 71 72 73 74 75 75 75 74 73 72 71 70 69 67 65 63 61 60 58 56 55 55 55 54 52 52 52 51 50 49 48 47 46 46 47 48 49 49 49 50 50 51 51 49 45 39 33 30 29 28 28 27 26 26 26
43 41 42 44 46 47 47 49 51 51 53 56 59 60 61 60 60 60 60 60 61 62 62 63 63 64 65 67 68 69 70 71 72 74 75 76 76 76 75 74 73 72 70 69 67 65 63 62 60 59 56 54 54 54 54 52 51 51 51 50 49 48 47 46 45 45 46 47 48 48 48 49 50 50 50 49 45 39 33 29 28 27 26 26 25 25
44 43 44 46 47 48 50 51 52 51 51 55 59 59 60 60 59 58 59 60 61 61 62 62 63 64 65 67 68 69 70 71 72 74 76 77 77 77 76 75 73 72 71 69 68 66 64 62 60 59 57 55 53 53 53 52 51 50 50 50 48 47 46 45 45 44 44 45 46 46 47 47 48 49 50 50 49 45 39 33 29 27 26 25 25 25
46 46 48 49 48 49 51 54 55 53 50 52 56 57 58 60 60 59 59 60 60 60 61 61 62 64 65 67 68 70 71 72 73 75 76 78 78 78 77 75 74 73 71 70 68 66 64 62 61 60 58 56 53 52 52 52 51 50 49 49 48 47 46 45 44 43 43 43 44 45 45 46 46 47 48 49 49 48 45 39 33 28 26 25 24 24
47 48 50 52 51 51 53 55 58 57 54 54 55 56 58 59 60 60 60 60 60 60 61 61 62 64 65 67 69 71 72 73 74 76 77 79 80 79 78 76 75 73 71 70 68 66 65 63 61 60 59 57 54 52 51 51 50 49 48 48 48 47 45 44 43 42 42 42 42 43 44 45 45 45 46 47 48 49 48 45 39 32 27 25 24 24
47 49 51 54 54 54 54 55 56 57 57 56 56 57 57 58 59 59 59 60 60 60 61 62 63 65 67 68 70 72 73 74 76 77 79 80 81 81 79 77 76 74 71 70 68 67 65 63 61 60 59 58 55 52 50 49 49 48 47 47 47 47 45 44 42 41 41 40 41 41 42 43 43 43 44 45 46 47 48 48 45 39 32 27 24 23
Wind_Direction
349 351 350 346 345 348 348 347 346 345 346 347 347 347 348 350 351 352 354 355 356 356 355 356 357 358 358 358 359 360 0 1 1 1 0 359 358 356 354 353 351 349 347 345 342 339 338 338 339 337 336 336 334 331 327 324 320 316 311 307 304 300 296 292 286 281 276 272 268 265 261 257 254 252 252 252 253 252 252 252 251 251 250 250 249 248
349 350 348 347 349 350 348 346 345 344 345 345 346 348 347 348 352 353 354 355 357 356 353 355 358 359 359 359 359 360 1 1 2 2 0 359 359 358 356 355 353 352 349 346 343 341 339 337 338 338 337 335 334 332 329 327 323 319 315 311 307 303 299 295 291 287 284 280 277 273 269 265 260 255 252 251 252 252 251 251 250 250 250 249 248 247
349 348 346 347 349 349 348 346 344 344 344 344 345 347 347 349 352 354 354 355 357 356 354 355 357 359 0 360 359 359 1 2 2 2 1 359 360 359 358 356 355 354 351 348 344 342 340 338 337 336 335 334 332 330 329 328 324 321 317 313 309 305 301 296 293 291 289 286 283 279 275 271 266 261 256 253 251 251 251 251 250 249 249 249 247 246
346 345 346 347 347 348 348 346 344 344 344 345 345 346 350 352 352 353 354 355 356 355 355 357 358 359 1 0 359 359 1 2 2 1 1 0 0 0 359 358 356 354 353 350 346 343 341 339 337 335 333 333 331 329 327 326 324 321 318 314 310 306 303 298 295 293 292 290 287 283 279 276 272 268 263 258 253 252 251 251 250 250 249 248 247 246
344 344 344 345 346 347 348 346 344 343 344 346 346 347 352 354 353 353 354 355 355 354 356 358 359 360 1 0 359 360 1 2 2 2 2 1 0 0 0 359 357 355 354 352 348 345 341 339 337 336 334 332 331 328 326 325 322 320 317 313 309 306 303 299 297 295 294 292 289 285 281 278 276 273 270 265 259 254 252 251 251 251 250 249 248 246
343 342 343 344 345 346 346 346 343 343 346 348 348 350 351 353 354 354 353 354 354 356 357 359 360 1 1 0 359 360 0 1 2 2 2 2 0 360 360 359 358 357 355 353 350 346 343 339 337 335 334 331 330 328 326 324 322 320 317 314 310 307 303 299 297 296 295 294 291 286 282 278 276 276 275 272 266 260 255 253 252 252 252 251 250 248
341 341 342 344 345 345 345 345 343 345 348 349 350 350 350 352 355 355 353 352 354 357 359 359 0 0 360 360 359 359 360 1 1 2 2 2 1 360 0 360 359 358 357 355 353 349 344 341 337 335 334 332 330 328 326 325 323 322 319 316 312 309 305 301 299 297 296 295 293 289 284 280 278 278 278 278 275 268 261 256 254 253 253 253 253 251
340 340 342 342 343 343 344 344 345 346 347 348 350 348 348 351 354 354 353 353 354 358 0 360 360 360 358 359 359 359 359 0 1 2 2 2 1 1 1 1 360 359 358 357 355 351 346 342 339 337 335 334 332 330 329 328 326 323 321 319 317 314 310 306 303 301 299 298 296 292 288 284 281 280 280 281 280 275 269 262 258 256 254 254 254 254
340 341 341 341 341 342 343 345 347 346 346 348 348 348 348 350 352 353 354 354 355 358 1 1 360 359 358 358 360 360 360 360 0 1 1 2 1 1 1 2 1 360 359 358 356 353 349 344 341 339 337 335 334 333 332 331 329 327 324 322 321 319 316 312 307 305 304 302 300 297 293 289 285 284 284 284 281 276 271 266 262 259 257 256 254 254
342 341 339 339 340 341 344 347 347 345 345 347 347 349 349 348 349 351 354 357 357 358 360 0 359 358 359 360 360 360 360 360 360 1 1 1 2 2 2 2 2 1 360 359 358 355 353 348 344 341 338 337 338 338 338 337 335 332 329 326 324 324 321 317 312 309 308 308 306 303 300 296 293 290 288 287 282 275 270 267 265 264 262 260 257 255
343 341 340 340 341 342 345 347 346 346 346 346 348 349 347 346 348 351 355 359 360 358 358 359 359 358 358 1 1 359 359 359 359 0 1 1 2 2 2 3 3 2 1 0 359 358 355 352 348 344 342 341 342 343 344 343 341 338 335 330 328 327 327 324 319 315 312 311 310 308 306 303 299 296 293 290 286 280 275 271 269 268 266 265 263 260
343 341 341 342 342 343 345 346 346 346 345 346 349 348 346 347 349 351 355 0 1 358 356 358 360 359 358 359 359 359 359 359 359 360 0 1 2 2 2 3 3 3 3 2 0 359 358 355 352 348 346 346 346 347 347 347 346 344 341 336 332 331 332 331 327 322 320 318 316 314 312 309 306 301 297 293 289 285 282 279 276 274 271 269 267 265
343 342 342 342 343 344 345 346 346 345 346 347 347 345 346 349 350 352 356 359 1 359 356 357 359 1 360 358 357 358 358 358 359 359 0 0 1 2 2 3 4 4 3 3 1 0 359 357 355 353 351 350 349 349 350 351 351 350 347 343 339 337 337 336 334 330 327 326 324 322 319 316 312 308 303 298 294 290 286 283 281 279 276 274 271 269
344 345 343 343 345 346 345 345 344 345 347 347 345 345 348 350 351 353 354 356 0 360 357 356 359 1 0 358 357 357 358 359 358 358 360 0 0 1 1 2 3 4 3 3 2 1 360 359 357 355 353 352 351 352 353 353 354 354 352 350 346 344 342 339 337 335 332 331 329 327 326 322 318 314 310 306 302 297 293 288 285 282 279 277 274 272
345 346 345 344 346 346 345 344 344 345 346 346 345 346 349 351 352 353 353 354 358 0 358 357 359 1 0 358 357 357 359 358 357 358 359 359 360 360 1 2 2 4 4 3 3 2 1 360 359 357 355 354 353 354 355 355 357 358 357 355 352 349 346 343 339 337 335 334 333 331 330 327 323 318 314 311 307 303 299 295 291 287 284 280 277 275
346 346 346 346 346 345 344 344 343 344 345 344 343 345 349 352 352 351 352 353 356 359 1 358 358 0 360 358 357 357 358 358 357 358 358 358 359 359 360 1 1 3 4 3 4 3 2 1 360 359 357 355 354 355 356 356 358 0 1 359 355 351 349 346 342 339 337 336 336 335 334 332 328 323 320 317 314 312 308 305 300 295 291 286 282 278
347 347 347 346 344 344 344 345 344 343 342 341 341 345 349 351 351 350 352 353 354 358 2 360 358 359 360 358 358 357 357 357 357 357 358 357 358 358 359 360 1 2 3 3 4 4 3 2 1 0 359 357 355 355 356 356 359 2 3 2 359 355 351 348 344 341 340 339 339 338 337 335 332 329 327 325 323 321 319 316 311 305 299 293 287 282
348 348 347 345 344 345 345 346 344 341 339 340 342 345 347 348 351 351 351 352 353 356 1 1 357 358 359 358 358 357 356 357 357 357 357 356 356 357 358 359 360 0 2 3 3 4 4 4 2 1 0 358 356 355 355 356 358 1 4 5 3 1 356 351 347 344 343 343 341 340 339 337 335 334 332 331 331 330 329 327 323 317 311 304 296 286
347 347 347 345 344 345 345 345 343 341 340 340 342 344 345 347 350 352 351 351 352 353 358 1 358 357 359 358 358 357 356 356 357 356 356 355 355 357 357 358 359 360 1 2 3 4 4 4 3 2 1 359 357 356 355 356 357 0 3 5 5 4 2 357 353 351 349 348 346 344 343 342 340 339 338 338 338 338 338 338 336 332 326 320 312 299
346 345 346 346 345 344 345 345 344 342 342 341 341 342 344 346 349 351 352 352 352 352 355 359 359 356 357 358 358 357 356 356 357 356 355 354 355 356 356 357 358 359 0 1 2 3 4 4 4 3 2 0 358 356 355 356 357 359 2 4 5 5 4 2 0 359 358 356 355 353 350 349 347 345 343 343 343 343 344 345 345 343 340 336 331 318
344 344 344 345 345 344 344 345 345 343 342 341 340 341 344 346 347 350 352 353 352 351 352 356 358 356 356 358 357 357 356 355 356 356 354 354 354 355 355 356 356 357 359 1 2 2 3 4 4 4 3 1 359 357 356 356 355 357 359 1 3 4 4 3 3 3 2 3 2 1 360 358 355 352 349 347 345 345 347 350 351 350 349 348 346 338
343 343 343 343 345 345 344 344 345 343 342 342 341 341 343 345 346 348 352 353 353 351 350 353 356 354 355 357 357 357 356 354 355 355 354 354 354 354 354 355 355 356 358 360 1 1 2 4 4 4 3 2 0 359 357 356 355 355 356 358 360 1 2 3 4 4 4 5 5 4 3 2 1 358 355 352 350 348 348 352 355 355 354 353 353 349
342 342 342 341 343 345 344 343 344 343 342 343 343 342 342 344 346 348 351 352 353 352 349 351 355 353 353 356 356 356 356 354 353 353 354 354 354 353 353 353 354 355 356 358 359 1 2 3 4 4 4 3 2 0 358 356 355 354 354 356 356 356 358 359 1 3 4 5 5 4 3 2 1 0 358 356 354 352 351 352 355 357 357 356 355 352
340 340 341 340 341 344 344 342 343 343 342 343 344 343 342 343 345 346 349 350 352 352 349 350 354 354 352 354 355 355 356 354 352 352 353 354 353 352 352 352 353 354 355 356 357 359 1 2 3 4 5 4 3 1 359 357 356 354 353 353 353 353 353 354 356 358 0 3 4 3 2 1 0 360 358 357 356 355 355 354 354 356 358 358 356 353
340 340 341 339 339 342 343 342 343 344 342 342 343 343 343 343 344 345 346 348 350 352 350 348 352 355 353 352 354 355 355 353 352 352 353 353 353 352 351 351 352 353 354 354 356 358 359 1 2 3 4 5 4 3 1 359 357 354 353 352 351 350 350 350 350 351 353 357 360 1 0 360 359 358 357 356 355 355 356 356 356 356 356 357 356 354
339 341 342 340 339 342 344 343 343 343 342 340 341 343 343 343 343 343 344 346 348 351 351 348 350 355 354 352 354 354 354 354 353 352 353 353 352 351 350 350 351 352 353 353 354 356 358 360 1 2 4 5 5 4 3 1 358 356 353 351 349 348 348 347 347 346 347 349 352 355 357 357 358 357 356 355 354 353 354 356 357 357 357 356 354 353
338 340 343 343 340 342 344 343 342 342 341 340 339 341 343 343 343 343 342 345 347 349 351 349 348 352 355 354 354 354 354 354 354 353 353 352 351 350 350 350 350 351 352 352 353 354 356 358 360 1 3 4 5 5 4 2 0 358 355 352 349 347 346 346 345 344 344 344 345 347 350 352 355 356 355 354 354 353 353 354 357 357 357 357 353 351
337 338 342 344 341 341 344 344 343 343 340 339 338 338 341 343 343 343 341 343 347 348 350 350 349 350 354 354 354 354 355 355 355 354 353 351 351 350 350 350 350 351 351 351 351 353 354 357 359 0 2 2 4 5 5 4 2 360 358 354 351 347 344 344 344 343 342 342 341 342 343 345 349 353 354 354 354 354 354 354 356 357 357 357 355 353
336 337 339 343 343 342 344 345 343 343 340 338 337 337 340 342 343 343 342 343 347 348 349 351 351 351 352 354 355 354 355 355 355 354 353 352 351 351 351 351 351 350 350 350 350 351 353 355 357 359 0 1 2 4 5 5 4 1 359 357 354 350 345 342 341 342 342 342 341 340 339 340 343 347 351 352 353 354 355 355 356 358 358 358 357 357
334 335 336 341 343 342 344 344 343 343 341 340 339 339 341 343 344 345 344 345 348 349 349 351 353 352 352 354 355 355 354 354 354 354 354 353 352 352 351 351 351 350 350 350 350 351 351 353 355 357 359 360 1 2 4 5 5 4 1 359 356 353 348 343 339 339 340 341 342 341 339 338 339 342 346 349 351 353 354 356 356 357 359 359 358 358
332 334 335 338 341 341 342 344 344 344 344 342 342 342 343 345 347 349 347 346 348 350 351 352 353 353 352 353 355 355 355 355 354 353 354 353 353 353 352 351 350 350 350 350 350 350 350 351 353 355 356 358 359 1 3 4 5 5 3 1 358 355 352 347 341 337 336 337 340 341 341 340 339 339 341 344 348 350 352 354 355 356 358 360 0 0
332 333 334 335 338 341 342 344 346 345 343 343 343 344 346 346 349 351 348 347 349 351 351 352 352 353 353 352 354 355 355 354 354 353 353 353 353 353 353 352 350 350 350 350 350 350 350 350 351 352 354 356 358 360 1 2 4 5 5 3 0 357 354 350 346 339 334 332 333 336 339 340 339 339 338 340 343 346 348 350 352 353 355 357 359 1
331 332 333 334 336 340 342 344 345 343 342 344 345 346 346 346 348 352 350 348 350 351 351 352 351 351 352 352 354 355 355 354 354 353 352 353 352 352 352 352 351 350 350 350 350 350 349 349 349 350 352 353 356 358 359 1 3 4 5 5 3 360 356 353 350 345 338 332 329 329 332 335 338 338 337 337 338 342 344 345 347 349 351 352 354 357
330 331 333 335 336 339 342 343 344 343 344 346 345 344 344 344 345 350 350 348 350 351 350 350 350 350 351 352 352 354 354 353 353 353 352 352 352 351 351 351 351 351 351 350 350 349 349 348 348 349 350 351 353 356 357 359 1 3 4 5 5 3 359 356 352 349 344 337 329 325 325 328 331 334 335 335 336 338 340 341 342 343 345 347 349 351
330 331 333 335 336 339 341 342 344 345 345 344 342 341 343 343 343 347 350 348 349 350 350 349 350 350 350 351 351 352 353 352 353 353 352 351 351 351 350 350 350 350 350 350 349 349 348 348 348 348 349 350 351 353 355 357 359 1 3 4 5 5 3 359 356 352 348 343 335 328 323 322 323 326 330 332 333 335 337 338 338 339 340 341 343 346
330 331 333 335 337 338 341 342 344 345 343 340 340 341 342 343 342 344 348 348 348 349 349 349 349 349 349 350 350 350 351 351 351 351 351 351 351 350 350 349 349 348 349 349 349 349 348 347 347 348 348 348 349 351 353 355 357 359 1 3 4 5 4 3 360 356 352 348 342 334 326 321 319 319 321 325 328 330 333 336 336 336 336 337 338 340
331 332 333 335 337 339 341 342 341 341 341 341 342 342 342 342 341 342 346 348 347 347 347 348 348 348 348 349 349 348 349 350 350 350 350 350 350 350 350 350 349 348 348 348 348 348 348 347 347 347 347 347 348 349 351 353 355 357 359 1 2 4 4 4 2 359 356 352 347 340 333 325 320 317 316 317 319 322 325 329 332 333 334 334 334 335
331 333 334 336 338 339 339 340 340 341 342 343 343 343 342 342 342 342 344 346 346 346 347 347 347 347 347 348 347 347 348 349 349 349 349 349 350 350 350 350 349 349 349 348 347 347 347 347 346 346 346 346 347 347 348 350 353 354 356 359 1 2 3 4 4 2 359 356 352 346 339 331 324 319 316 313 312 313 316 319 322 325 327 330 331 332
330 332 334 336 338 338 339 339 341 341 341 342 342 342 342 343 343 342 343 345 345 345 346 346 346 346 346 347 347 346 347 348 348 348 349 349 349 349 350 349 349 350 349 348 347 347 347 347 346 345 345 345 346 346 346 348 350 352 354 356 359 0 2 3 4 4 2 359 356 352 346 338 330 322 318 316 312 310 308 309 312 315 317 321 324 325
329 332 334 336 337 338 338 338 339 340 339 340 341 341 342 343 343 343 343 344 345 345 345 345 345 345 346 346 346 346 346 347 348 348 348 348 348 348 349 349 349 349 349 348 347 346 346 346 346 345 344 344 345 345 345 346 347 349 352 354 356 358 0 2 3 4 4 2 359 356 351 346 337 328 321 317 316 313 308 304 304 306 308 310 312 315
329 332 334 336 336 337 337 336 337 339 339 339 340 341 341 342 342 342 342 342 342 343 343 343 343 344 345 345 345 346 346 347 347 348 348 348 348 347 347 348 348 348 348 347 347 346 345 345 345 344 344 343 343 344 344 345 345 347 350 352 354 356 358 0 2 3 4 3 2 359 355 351 345 336 326 319 317 317 315 308 303 301 301 301 303 305
329 331 333 335 336 336 336 334 334 338 339 339 339 340 339 340 340 341 341 340 340 341 341 341 342 344 344 344 344 345 346 347 347 347 347 347 347 346 346 346 347 347 347 347 346 345 345 344 344 344 343 342 342 343 343 344 344 345 347 350 352 354 356 359 0 2 3 4 3 1 358 354 350 344 335 325 319 317 317 315 310 305 300 298 298 298
329 331 332 334 335 335 336 335 335 338 339 338 337 338 338 338 338 338 339 339 338 339 340 341 342 343 343 343 343 344 345 345 346 346 346 345 345 345 345 345 345 346 346 345 345 345 344 344 343 343 343 342 342 342 342 343 344 344 345 347 350 352 355 357 359 0 1 3 3 3 1 358 354 349 343 334 324 318 315 316 316 313 308 303 300 298
329 330 331 332 333 335 336 336 334 335 336 335 335 336 335 335 336 336 337 338 337 338 339 340 341 342 342 342 342 343 343 344 344 344 344 343 343 343 343 343 343 344 344 344 344 344 344 343 342 341 341 342 341 341 340 341 342 343 344 345 347 350 352 355 357 358 360 1 3 3 3 1 357 353 349 343 333 323 316 313 314 315 314 311 307 303
328 329 329 329 331 333 334 333 332 333 334 333 332 333 333 334 334 335 337 337 337 337 338 339 340 340 340 340 340 341 341 342 342 342 342 342 341 341 342 342 342 342 342 343 343 344 344 344 342 341 340 340 340 340 340 340 341 342 343 344 345 347 350 353 355 357 358 0 2 2 3 2 1 357 353 349 343 333 321 313 311 312 313 313 312 310
325 327 327 328 328 330 332 331 329 331 333 331 330 331 332 333 334 334 336 336 336 336 337 338 338 338 337 338 338 338 338 339 340 340 340 340 340 340 340 340 341 341 341 342 342 343 343 343 343 341 339 339 339 339 339 338 339 340 342 343 343 345 348 350 352 354 356 359 0 1 2 3 3 0 357 353 350 343 332 320 312 309 310 311 312 313
325 327 327 327 327 327 329 329 328 331 332 330 329 330 331 332 333 334 335 335 336 336 337 337 337 336 335 335 335 335 335 336 337 339 339 338 338 338 338 338 339 340 340 340 341 342 342 343 343 342 340 338 337 338 338 338 337 339 341 342 342 344 346 348 350 352 355 357 359 360 1 2 3 3 0 356 353 350 345 335 322 312 309 309 310 311
327 330 328 327 327 327 328 328 327 330 332 330 328 329 330 331 332 334 334 335 335 335 335 335 335 334 333 333 333 332 333 334 336 337 337 337 337 337 337 337 337 338 339 339 339 340 341 342 342 342 341 338 336 336 337 337 336 337 339 341 342 343 344 346 348 350 352 355 357 358 359 1 2 3 3 0 356 352 349 346 337 325 315 311 309 310
328 330 326 325 328 329 328 327 327 330 333 332 329 330 331 332 332 334 334 334 334 334 333 332 332 331 330 330 330 330 331 332 334 336 336 336 336 336 337 337 336 337 338 338 338 339 340 340 341 341 341 339 336 335 335 336 335 335 337 339 340 341 343 344 346 348 350 352 355 356 358 359 1 2 3 2 0 356 353 350 346 337 327 318 313 313
325 326 323 323 328 330 329 328 328 330 335 336 333 332 333 332 332 333 333 332 332 331 331 330 329 329 328 328 328 329 330 332 334 335 335 334 335 335 336 336 336 336 336 337 337 338 338 339 340 340 341 340 337 334 333 334 335 334 335 337 339 340 341 342 344 346 347 350 352 354 356 357 359 1 2 2 2 360 357 354 351 347 338 328 320 316
322 323 322 323 327 330 330 330 330 332 335 335 333 332 332 331 330 331 331 329 329 329 328 328 328 327 326 327 327 328 330 332 333 333 333 333 334 334 335 335 335 335 335 336 336 336 337 338 338 339 340 340 337 334 332 332 333 333 333 334 336 339 340 341 342 344 345 347 350 352 354 356 357 359 0 1 1 360 359 357 355 353 348 339 329 322